Regional Weather Roundup
Issued by NWS

Home | Current Version | Previous Version | Text Only | Print | Product List | Glossary Off
Versions: 1 2 3 4 5 6 7 8 9 10 11 12 13 14 15 16 17 18 19 20 21 22 23 24 25 26 27 28 29 30 31 32 33 34 35 36 37 38 39 40 41 42 43 44 45 46 47 48 49 50

000
ASUS43 KLMK 022102
RWRKY
KENTUCKY REGIONAL WEATHER ROUNDUP
NATIONAL WEATHER SERVICE LOUISVILLE KY
500 PM EDT TUE JUN 02 2015

NOTE "FAIR" INDICATES FEW OR NO CLOUDS BELOW 12,000 FEET
WITH NO SIGNIFICANT WEATHER AND/OR OBSTRUCTIONS TO VISIBILITY.

KYZ001>023-026-027-061>063-070>075-022200-
WESTERN AND SOUTH CENTRAL KENTUCKY

CITY           SKY/WX    TMP DP  RH WIND       PRES   REMARKS
PADUCAH        CLOUDY    65  57  75 NE7       30.06S
HENDERSON      CLOUDY    64  55  72 NE3       30.06S
OWENSBORO      CLOUDY    67  57  70 N6        30.06F
HOPKINSVILLE   CLOUDY    66  59  79 NE6       30.04F
BOWLING GREEN  CLOUDY    65  58  78 CALM      30.05F
GLASGOW        NOT AVBL
$$

KYZ024-025-028>034-038-045-046-053-022200-
NORTH CENTRAL KENTUCKY

CITY           SKY/WX    TMP DP  RH WIND       PRES   REMARKS
LOUISVILLE/SDF CLOUDY    67  55  65 NE10      30.06F
LOUISVILLE/LOU CLOUDY    65  54  67 NE7       30.07F
FORT KNOX      CLOUDY    64  56  74 NE7       30.04F
$$

KYZ035>037-039>044-047>052-055>060-089>105-022200-
NORTHEAST KENTUCKY

CITY           SKY/WX    TMP DP  RH WIND       PRES   REMARKS
LEXINGTON      CLOUDY    59  53  80 NE9       30.07F
COVINGTON      CLOUDY    62  51  67 NE10      30.08F
FRANKFORT      CLOUDY    60  52  74 E5        30.08S
$$

KYZ054-064>069-076>088-106>120-022200-
SOUTHEAST KENTUCKY

CITY           SKY/WX    TMP DP  RH WIND       PRES   REMARKS
JACKSON        CLOUDY    61  56  83 CALM      30.06F
LONDON         CLOUDY    65  54  67 NE8       30.04F
SOMERSET       NOT AVBL
MIDDLESBORO    NOT AVBL
MONTICELLO     CLOUDY    68  61  78 NE7       30.07S
$$



USA.gov is the U.S. government's official web portal to all federal, state and local government web resources and services.